Regional Weather Roundup
Issued by NWS

Home | Current Version | Previous Version | Text Only | Print | Product List | Glossary Off
Versions: 1 2 3 4 5 6 7 8 9 10 11 12 13 14 15 16 17 18 19 20 21 22 23 24 25 26 27 28 29 30 31 32 33 34 35 36 37 38 39 40 41 42 43 44 45 46 47 48 49 50

000
ASUS43 KDMX 240801
RWRIA

WEATHER ROUNDUP FOR IOWA
NATIONAL WEATHER SERVICE DES MOINES IA
300 AM CDT TUE APR 24 2018

NOTE: "FAIR" INDICATES FEW OR NO CLOUDS BELOW 12,000 FEET WITH NO
SIGNIFICANT WEATHER AND/OR OBSTRUCTIONS TO VISIBILITY.

* - THESE STATIONS ARE NOT NWS STATIONS...THUS NOT UNDER NWS
QUALITY CONTROL.  THEY ALSO DO NOT REPORT WEATHER SUCH
AS PRECIPITATION OR FOG.

IAZ001>003-012>014-020>022-031>034-043>046-240900-
   NORTHWEST IOWA

CITY           SKY/WX    TMP DP  RH WIND       PRES   REMARKS
CARROLL *      MOCLDY    45  39  81 NW5       30.13S
CHEROKEE *     CLOUDY    41  40  95 CALM      30.15S
DENISON *      CLEAR     45  39  81 NE3       30.15S
LE MARS *      CLOUDY    45  39  81 N3        30.15S
ORANGE CITY *  CLOUDY    48  41  76 E3        30.15S
SHELDON *      CLOUDY    43  41  93 CALM      30.14S
SIOUX CITY     CLOUDY    47  41  80 CALM      30.15S
SPENCER        CLEAR     38  35  89 W3        30.14F
STORM LAKE *   CLEAR     48  39  71 NE7       30.14F
$$

IAZ055>058-069>071-079>083-090>094-240900-
   SOUTHWEST IOWA

CITY           SKY/WX    TMP DP  RH WIND       PRES   REMARKS
ATLANTIC *     MOCLDY    45  39  81 CALM      30.13S
AUDUBON *      CLEAR     43  37  81 CALM      30.14S
CLARINDA *       N/A     43  34  70 NE7       30.13S
COUNCIL BLFS * CLEAR     48  39  71 NE8       30.12S
CRESTON *      CLEAR     48  32  53 N10       30.12R
HARLAN  *      MOCLDY    48  41  76 N7        30.16S
LAMONI         CLEAR     49  29  46 N7        30.08S
RED OAK *      CLEAR     45  34  65 CALM      30.12S
SHENANDOAH *   CLEAR     43  32  65 NE5       30.12R
$$

IAZ047>049-059>061-072>074-084-240900-
   CENTRAL IOWA

CITY           SKY/WX    TMP DP  RH WIND       PRES   REMARKS
AMES           CLEAR     46  38  73 NW6       30.11F
ANKENY *       CLEAR     43  34  70 N6        30.11S
BOONE *        CLEAR     45  39  81 N8        30.11S
CHARITON *     MOCLDY    46  30  53 N9        30.08S
DES MOINES     CLEAR     53  32  44 NE5       30.10F
GRINNELL*      CLEAR     42  30  63 N5        30.11R
KNOXVILLE *    CLEAR     50  28  43 N6        30.08S
MARSHALLTOWN   CLEAR     41  34  76 N6        30.10S
NEWTON *       CLEAR     46  30  53 N9        30.10R
PELLA *        CLEAR     46  29  52 N3        30.10S
$$

IAZ004>006-015-016-023>025-035-036-240900-
   NORTH CENTRAL IOWA

CITY           SKY/WX    TMP DP  RH WIND       PRES   REMARKS
ALGONA *       CLEAR     45  39  81 NW6       30.14S
CLARION *      CLOUDY    45  39  81 N5        30.12F
ESTHERVILLE    PTCLDY    39  37  92 NW6       30.14F WCI  35
FORT DODGE *   CLEAR     47  41  80 N5        30.13F
MASON CITY     CLEAR     42  38  85 NW3       30.13F
FOREST CITY *  FAIR      41  41 100 N3        30.13S
WEBSTER CITY * PTCLDY    43  41  93 N7        30.11S
IOWA FALLS *   FAIR      42  37  82 CALM      30.12F
$$

IAZ007>011-017>019-026>030-037>042-050>054-066-240900-
   NORTHEAST IOWA

CITY           SKY/WX    TMP DP  RH WIND       PRES   REMARKS
CEDAR RAPIDS   FAIR      48  29  47 NE9       30.07F
CHARLES CITY * MOCLDY    45  36  70 CALM      30.12S
CLINTON *      FAIR      47  35  63 NE6       30.08F
DECORAH *      FAIR      43  34  70 CALM      30.11S
DUBUQUE        FAIR      44  32  62 NE8       30.09F
MONTICELLO *   FAIR      39  32  75 CALM      30.09S
OELWEIN *      FAIR      46  32  57 NE7       30.11S
WATERLOO       FAIR      42  36  79 CALM      30.11S
$$

IAZ064-065-067-068-078-240900-
   EAST CENTRAL IOWA

CITY           SKY/WX    TMP DP  RH WIND       PRES   REMARKS
DAVENPORT      FAIR      47  33  58 N6        30.09S
IOWA CITY      FAIR      50  28  42 NE8       30.09F
MT. PLEASANT * CLEAR     45  32  61 N6        30.07R
MUSCATINE *    FAIR      45  34  65 N5        30.07F
QUAD CITIES    FAIR      53  38  56 E6        30.06S
$$

IAZ062-063-075>077-085>089-095>099-240900-
   SOUTHEAST IOWA

CITY           SKY/WX    TMP DP  RH WIND       PRES   REMARKS
BURLINGTON     PTCLDY    50  44  80 N5        30.04F
FAIRFIELD *    CLEAR     46  30  53 NE7       30.06S
FORT MADISON * CLOUDY    52  46  82 N5        30.06S
KEOKUK *       CLOUDY    54  50  87 NE6       30.04S
OSKALOOSA *    FAIR      45  27  50 NE8       30.07S
CENTERVILLE *    N/A     48  28  46 CALM      30.08R
OTTUMWA        CLEAR     48  28  46 NE8       30.06F
WASHINGTON *   CLEAR     46  32  57 NE7       30.08S
$$

ABBREVIATIONS USED IN REMARKS
   TC - TEMPERATURES IN CELSIUS
  WCI - WIND CHILL INDEX
   HX - HEAT INDEX
  VSB - VISIBILITY
$$





USA.gov is the U.S. government's official web portal to all federal, state and local government web resources and services.